Wind_Speed
18 21 24 22 22 23 23 22 22 22 22 21 21 21 20 21 21 20 21 21 21 19 18 17 17 17 16 15 14 14 14 13 12 12 12 13 13 13 13 13 11 11 11 11 11 11 11 11 11 11 9 9 9 8 8 6 6 7 8 7 5 5 5
19 20 24 24 22 23 23 23 22 22 22 21 22 22 20 21 23 21 21 21 20 20 19 18 18 17 17 15 14 14 14 13 13 12 12 12 13 12 12 12 11 12 11 11 11 11 12 12 13 11 10 10 9 8 8 8 7 7 7 7 6 5 5
19 18 21 24 23 23 22 23 22 21 22 22 21 22 21 22 23 22 21 21 20 21 20 19 19 18 17 16 15 14 14 13 13 13 12 12 12 11 11 11 11 11 11 10 11 11 12 12 12 12 10 9 9 9 8 8 8 8 7 7 7 6 6
22 21 21 22 24 24 23 23 23 22 22 22 21 22 22 22 22 21 21 21 21 21 21 20 19 19 18 17 16 15 15 14 13 13 12 12 12 11 11 11 11 11 10 10 10 10 11 11 11 11 10 10 10 9 9 9 8 9 8 7 8 7 6
24 23 23 24 24 24 24 24 23 23 22 22 23 22 22 22 21 20 21 21 21 21 21 21 20 20 19 18 17 16 16 15 13 13 12 12 13 13 12 12 11 11 11 10 9 10 11 11 11 11 11 10 10 9 10 10 9 9 9 8 8 7 5
24 23 22 25 26 24 25 25 24 24 22 22 24 24 23 23 22 21 21 21 21 21 21 21 20 20 20 19 17 16 16 16 15 14 13 11 12 13 11 10 11 11 12 11 9 10 11 11 10 10 10 10 10 10 10 10 10 9 9 9 9 8 6
25 24 21 22 25 24 24 25 24 24 22 20 23 24 22 23 22 21 20 20 20 21 21 21 20 19 19 18 17 16 15 16 15 15 14 11 11 12 11 11 12 12 12 12 11 10 11 11 12 11 10 10 9 9 9 9 9 9 9 9 9 9 8
25 26 22 20 23 24 24 25 24 24 22 20 22 24 23 23 23 21 20 20 20 20 21 21 20 20 19 18 17 17 16 15 16 16 15 13 11 12 13 13 12 11 11 10 11 12 11 11 11 11 10 10 9 9 10 10 9 9 10 9 9 10 9
25 26 23 20 19 21 24 25 24 24 23 21 22 25 25 25 24 22 21 20 21 21 21 20 20 19 19 18 18 17 16 15 15 15 16 15 14 13 13 13 12 12 11 9 10 12 11 10 10 10 10 11 11 11 11 11 10 10 10 9 9 9 9
26 25 24 22 18 17 21 23 23 23 23 21 21 24 25 24 24 25 23 20 20 22 21 19 20 19 19 19 18 17 16 16 15 14 15 15 14 13 12 12 12 13 12 12 11 10 11 12 11 11 11 11 12 12 12 11 11 10 10 9 9 9 8
21 22 22 23 19 16 19 21 22 22 22 20 20 22 23 23 25 26 23 19 19 22 21 19 20 20 19 19 18 17 16 16 15 15 15 15 14 12 12 13 13 12 12 12 12 11 11 12 12 12 13 12 12 13 13 12 11 10 10 10 10 10 8
18 21 20 21 21 19 20 22 23 23 21 20 19 20 22 24 25 25 22 19 20 22 21 20 21 21 19 19 19 18 17 16 16 16 15 15 14 13 13 13 12 12 12 12 12 12 12 11 11 12 12 11 11 12 12 12 11 10 10 11 10 10 9
22 23 20 20 23 22 22 23 22 21 21 21 20 19 19 21 23 24 22 20 22 23 21 20 21 21 21 20 19 19 18 16 15 15 15 15 15 14 12 12 12 12 11 11 12 12 11 11 11 12 11 9 10 12 11 10 11 11 11 11 11 11 11
20 21 18 20 23 22 22 23 23 21 18 18 20 20 19 19 20 20 19 19 21 23 23 22 20 20 20 19 18 18 19 18 15 15 15 15 15 15 13 12 12 12 11 11 11 10 11 11 11 11 11 11 10 11 11 11 11 11 11 11 11 12 11
15 18 18 19 21 20 18 20 23 23 19 16 18 20 20 19 19 18 18 18 20 20 22 23 22 20 19 18 16 16 17 18 17 15 15 15 15 15 15 13 12 12 12 12 10 10 10 11 11 10 11 11 10 11 12 13 12 12 11 11 11 12 12
12 14 16 19 21 20 18 18 19 20 19 16 17 17 17 19 20 18 14 15 18 18 18 21 22 21 19 17 16 14 14 16 17 17 17 16 16 15 15 14 11 11 11 11 11 11 11 11 11 11 10 11 10 10 12 14 14 13 12 11 11 10 11
12 12 13 17 20 19 19 19 19 19 19 17 16 15 15 16 17 16 13 14 18 20 18 18 19 19 17 17 16 15 13 13 15 18 18 17 16 15 15 15 12 11 12 13 13 13 12 11 11 10 10 11 12 11 12 14 15 13 12 12 12 11 11
13 13 13 13 16 17 16 18 20 19 19 18 17 16 15 13 13 14 14 14 16 17 17 17 18 19 19 19 17 15 13 13 13 13 13 15 16 16 17 18 17 16 16 16 16 16 15 13 13 13 13 12 11 10 11 14 15 14 14 14 14 13 13
13 12 11 11 14 16 16 17 18 18 18 16 15 16 18 16 14 14 13 13 13 14 16 17 18 18 19 20 20 17 14 15 18 15 11 12 14 14 15 17 17 17 17 14 14 15 16 15 15 17 17 15 15 14 13 13 14 15 16 16 16 16 15
11 10 8 8 11 14 15 16 17 17 17 16 15 16 18 18 19 18 17 16 14 14 16 17 16 16 17 19 21 20 18 18 21 20 15 12 12 13 17 18 17 17 17 15 13 12 14 16 17 18 18 18 18 19 19 17 16 16 17 18 19 19 17
9 9 8 8 10 12 12 14 15 16 17 17 16 16 16 18 20 21 20 19 18 17 18 18 17 16 18 20 21 21 20 18 17 18 17 15 14 15 17 17 17 18 18 17 16 14 14 16 17 17 16 16 18 21 22 21 19 17 17 18 19 20 20
10 10 9 9 10 11 11 12 13 15 16 16 16 16 16 18 19 19 18 19 20 20 19 19 18 17 18 20 19 19 18 16 15 16 15 13 12 12 14 14 15 17 17 17 17 17 17 17 19 20 18 16 18 22 23 23 22 20 20 20 20 20 21
12 12 12 12 12 12 12 11 11 11 11 12 12 13 15 17 18 18 17 18 19 20 18 17 17 16 16 17 16 15 15 16 16 16 16 15 13 13 14 14 14 15 15 16 17 18 18 18 19 21 21 18 18 21 23 24 22 21 21 21 21 21 22
14 15 16 16 15 15 15 14 14 13 11 10 10 9 9 11 13 15 16 16 17 17 15 15 15 15 15 15 14 14 15 16 16 16 17 17 15 15 16 17 16 15 14 14 14 13 15 16 16 17 18 18 18 20 23 24 22 21 20 19 19 19 20
17 17 17 17 17 18 17 16 17 17 16 15 14 12 11 9 9 10 12 14 14 13 13 13 14 14 13 13 13 14 14 14 14 14 14 13 12 12 14 15 15 14 13 13 11 10 11 11 10 11 12 13 15 19 20 20 19 20 20 19 18 17 18
18 18 18 18 18 19 18 17 17 17 16 16 16 15 14 13 13 12 13 13 12 11 12 13 13 12 11 11 11 11 11 11 10 10 10 10 10 10 10 10 11 12 11 11 9 8 7 6 5 5 5 6 9 13 15 15 14 14 15 17 16 16 17
18 18 19 18 17 17 17 17 18 18 17 16 15 14 14 15 17 17 16 15 15 15 15 14 13 12 12 12 12 12 11 11 10 11 11 11 10 9 8 7 8 8 7 6 4 3 3 5 6 4 3 4 5 6 7 9 9 8 9 10 11 12 13
18 18 18 17 16 16 16 16 17 17 16 15 14 14 14 16 18 19 17 16 16 16 16 15 14 14 14 15 16 15 15 14 13 13 12 12 12 11 11 11 9 9 8 8 8 9 7 7 7 5 4 4 3 1 1 2 3 3 3 4 5 6 7
18 17 16 15 16 15 15 16 16 15 14 13 13 14 14 15 16 17 16 17 17 16 15 15 16 16 15 15 15 15 15 15 14 12 11 11 11 10 10 9 7 7 7 7 8 9 8 7 6 4 3 3 1 2 3 3 3 4 4 3 3 3 3
17 17 16 16 16 15 15 15 15 14 13 11 12 13 12 12 13 13 13 14 15 15 14 14 15 15 15 15 14 14 14 12 10 10 9 8 8 7 7 7 5 5 5 5 5 6 6 6 6 4 3 3 2 3 3 4 5 5 5 4 4 4 3
18 17 17 16 15 14 14 14 13 12 11 11 11 11 10 10 11 11 11 11 10 10 11 11 11 10 11 12 12 12 11 9 8 8 7 7 6 5 6 7 5 4 5 5 5 5 5 6 7 5 3 3 2 2 4 5 4 4 5 4 4 5 3
18 17 17 17 15 14 13 13 13 12 11 10 9 9 9 9 9 9 9 9 9 8 8 8 7 6 7 8 8 9 9 7 7 7 7 6 5 4 6 6 3 2 4 5 4 4 5 5 5 5 4 3 1 3 6 5 3 4 5 5 6 7 7
18 16 16 16 15 14 13 13 13 12 12 11 9 7 7 8 8 8 7 7 7 7 7 6 6 6 6 7 7 8 9 7 4 5 7 8 6 4 6 6 4 3 5 6 4 4 5 5 4 4 4 3 2 3 3 2 4 5 6 6 9 12 12
17 16 16 16 15 14 13 12 11 10 10 10 9 8 7 7 8 9 8 6 5 7 7 7 7 6 6 7 8 7 8 7 4 3 4 6 6 7 7 7 6 5 8 8 6 4 5 6 6 6 5 4 4 4 3 7 8 8 8 9 11 13 14
16 16 15 15 14 13 12 10 9 7 7 7 8 8 7 7 7 8 7 6 5 6 7 7 7 7 6 6 6 5 6 6 6 4 2 3 6 8 8 8 7 5 6 6 5 5 7 6 5 6 7 7 8 8 8 8 8 9 10 12 13 14 15
18 18 16 15 14 12 11 9 8 7 6 6 7 7 7 7 7 6 6 5 4 5 6 6 7 7 5 4 4 3 4 4 4 6 6 3 4 6 8 9 9 7 7 7 7 7 8 8 7 7 8 8 8 10 11 11 11 11 12 13 14 15 16
14 15 15 14 12 11 10 9 8 7 6 6 8 8 8 7 6 6 5 5 5 5 6 7 8 7 6 5 5 5 6 4 4 7 9 7 5 5 6 9 11 11 10 10 10 10 11 12 12 12 12 12 12 12 12 13 14 15 15 15 16 16 15
10 10 11 11 10 10 9 8 7 6 6 7 8 9 9 8 8 7 6 5 5 7 9 10 9 8 8 8 8 9 10 7 6 7 9 10 9 6 5 6 7 8 8 8 9 9 8 8 10 10 11 12 13 13 12 13 14 15 15 15 15 14 13
Wind_Direction
197 188 185 185 183 181 181 178 178 178 174 174 175 174 174 174 171 172 177 180 179 175 172 171 172 172 175 176 178 182 181 181 181 179 180 178 179 186 186 185 189 189 191 195 192 194 191 187 199 206 199 199 203 201 203 204 194 189 192 195 194 186 174
203 192 184 185 185 182 180 179 180 178 176 179 179 176 176 175 174 176 182 184 182 179 175 173 176 176 178 179 180 184 183 179 181 181 179 180 181 186 186 186 191 191 189 190 191 196 195 193 201 205 200 200 204 205 204 202 198 197 199 198 200 195 178
203 195 187 186 185 183 181 180 183 181 178 181 181 178 179 177 175 180 185 185 184 184 180 178 179 178 180 182 182 186 184 181 183 181 180 183 185 185 184 189 195 190 188 191 194 200 201 200 205 205 202 203 204 206 205 203 202 203 205 203 202 199 187
198 195 192 190 186 185 185 184 186 186 182 184 183 180 180 177 175 180 183 184 185 186 185 183 182 181 182 185 186 187 185 186 186 182 184 187 185 182 185 195 195 186 192 200 197 199 201 203 208 207 205 205 206 207 205 204 205 206 207 205 204 205 202
195 194 193 191 189 187 188 189 190 189 185 184 184 183 182 180 177 177 179 182 184 186 186 185 183 184 186 186 188 188 187 188 184 182 190 189 182 184 190 195 192 186 193 203 200 196 197 202 210 210 208 209 210 210 208 206 207 211 212 208 205 205 214
194 193 188 187 189 188 189 191 190 190 188 185 185 186 186 185 183 179 179 181 182 183 184 183 184 189 190 187 187 190 193 190 184 185 193 191 184 188 191 190 190 190 193 198 204 203 199 202 207 210 210 208 209 210 211 212 210 213 217 214 211 206 205
192 190 185 185 188 189 192 193 189 189 190 186 184 186 188 188 187 184 182 180 182 184 183 181 184 190 192 187 183 190 198 195 189 188 191 194 192 187 189 194 195 198 196 194 200 206 208 205 200 208 212 206 210 212 215 220 213 215 223 218 218 216 208
186 186 188 189 189 191 194 193 188 190 194 189 185 187 190 190 190 189 187 184 184 187 187 184 184 190 192 186 184 190 194 195 196 193 189 196 200 193 195 199 196 202 203 197 199 203 210 210 202 209 208 199 210 215 217 228 220 215 227 225 223 224 220
183 184 189 189 189 195 196 192 189 191 196 197 193 191 190 189 188 189 191 189 189 189 189 186 186 192 194 187 187 192 190 192 201 199 191 195 203 201 200 198 196 202 203 201 205 203 203 206 207 216 209 197 209 213 213 228 229 219 224 230 234 229 217
185 187 192 192 195 199 194 190 190 189 190 196 198 194 191 190 190 190 189 191 192 190 188 186 187 196 200 191 187 192 192 193 199 202 198 199 204 203 199 200 205 207 201 201 211 209 202 201 205 217 217 205 208 213 212 223 234 226 219 227 242 241 226
182 184 192 196 199 199 192 187 187 188 189 192 195 195 195 197 198 194 189 191 196 191 188 189 189 195 203 198 189 190 195 196 196 201 203 203 206 208 204 204 210 212 205 204 211 209 205 209 210 217 224 216 213 218 217 221 232 230 218 224 241 249 245
179 175 181 190 193 195 195 189 185 189 196 196 195 198 200 201 201 196 191 194 199 193 188 191 193 193 200 201 193 190 195 200 201 201 204 206 207 209 212 209 210 217 214 207 212 214 212 215 215 222 235 229 221 229 231 228 234 234 222 220 230 243 252
182 176 173 180 184 184 187 188 184 185 194 198 197 196 195 200 202 197 195 198 197 192 190 193 197 198 201 203 198 194 194 198 204 205 205 209 208 208 213 214 212 218 217 210 214 220 223 220 214 224 243 242 227 233 241 238 238 242 237 229 225 233 247
181 182 179 181 181 173 169 173 174 173 177 185 191 189 185 193 204 205 202 199 193 191 190 190 194 199 203 205 203 202 199 196 201 209 209 211 213 211 210 213 215 219 224 227 223 220 226 232 223 217 232 244 236 232 241 246 243 243 245 242 235 232 240
176 182 185 187 185 179 171 166 165 166 164 165 175 182 182 186 197 207 206 194 187 190 191 190 193 195 197 201 202 208 211 204 200 207 211 212 219 218 212 212 217 220 226 234 233 224 226 240 244 232 231 241 239 231 239 247 247 247 248 248 243 235 235
165 175 183 186 183 185 193 189 179 177 175 168 166 175 182 184 189 198 199 188 190 197 195 193 196 195 196 203 205 207 213 210 206 210 211 210 214 217 213 212 218 225 227 228 231 233 233 237 247 252 252 254 252 250 250 248 246 247 249 252 254 250 246
154 163 176 184 180 179 192 202 202 198 196 195 190 186 186 183 186 192 192 193 202 208 207 202 201 203 205 210 212 212 213 215 214 212 210 207 208 210 206 204 210 219 221 219 219 226 233 236 238 240 246 255 263 267 259 250 251 252 250 257 265 267 267
134 138 147 165 172 173 181 192 199 203 206 214 221 218 206 192 187 189 189 196 204 211 217 214 209 212 215 214 216 216 217 227 230 220 212 212 215 215 209 206 210 214 215 217 217 217 222 231 237 234 233 240 249 254 249 244 247 249 249 256 263 265 269
112 116 124 139 156 167 173 176 183 191 195 201 211 217 212 205 201 197 195 202 206 206 212 212 208 209 212 215 216 209 205 223 231 226 218 212 212 220 222 219 221 223 224 228 228 223 220 221 230 235 236 237 239 243 249 250 249 247 246 251 256 257 261
108 112 119 138 159 171 176 177 180 184 186 188 193 200 203 204 208 209 206 207 207 204 206 209 211 208 206 211 215 210 208 220 227 229 234 230 222 229 234 233 232 233 236 240 239 236 230 224 226 234 239 242 245 246 250 254 256 255 251 250 253 254 255
117 123 125 144 168 180 185 186 189 190 193 196 199 202 203 203 205 207 207 205 205 205 207 212 213 207 203 208 211 210 209 215 224 231 237 239 236 239 242 240 239 240 243 244 243 244 242 234 230 233 237 241 245 246 249 253 256 257 254 251 251 252 255
126 129 126 130 147 166 178 185 192 196 199 203 208 213 214 211 206 206 207 207 207 204 203 206 206 200 202 208 209 207 206 211 224 231 233 237 238 238 242 242 240 240 241 245 245 244 245 242 236 236 239 240 242 245 247 250 253 254 254 253 252 251 254
123 122 119 119 124 136 150 162 173 183 192 198 205 214 218 218 217 214 212 209 209 205 200 201 203 200 201 207 211 212 210 214 224 228 231 236 235 231 236 239 240 241 241 245 245 241 239 240 238 239 243 244 243 243 243 245 248 250 251 250 250 250 253
120 116 113 112 111 114 121 127 132 137 144 151 157 169 188 203 211 211 209 207 209 207 202 202 207 207 207 209 214 220 219 217 221 225 229 233 233 232 236 239 242 246 245 245 248 245 241 241 242 245 248 248 245 243 243 244 244 246 249 252 252 252 253
124 118 113 110 108 108 109 111 113 114 116 118 119 119 125 143 166 178 182 187 195 196 190 187 189 193 197 198 200 206 208 206 209 216 222 224 219 219 227 234 238 241 241 241 245 249 247 242 242 249 253 251 246 242 243 246 246 245 247 251 257 259 259
126 122 118 115 112 109 107 106 105 105 105 105 106 107 112 119 126 132 139 146 152 156 154 150 152 161 169 172 175 181 185 182 178 183 193 194 187 187 198 214 221 223 227 229 232 240 240 223 224 248 248 239 238 236 239 244 249 250 248 250 257 264 265
121 119 118 117 115 111 109 108 106 104 101 101 105 108 112 116 118 118 122 128 130 128 126 125 128 132 136 137 138 141 146 150 153 159 163 163 167 173 171 168 182 195 202 202 188 187 196 182 184 201 193 188 212 225 229 236 244 251 253 253 257 262 265
116 115 113 112 111 110 110 108 106 103 100 102 109 114 116 120 122 123 126 130 127 122 121 123 125 128 133 134 132 128 126 126 133 142 145 141 142 149 147 138 138 147 152 148 136 128 125 135 148 148 127 135 178 207 199 226 248 264 266 262 261 259 257
116 114 111 109 109 109 108 105 102 100 100 105 116 122 123 124 124 127 132 132 128 125 124 123 123 127 133 135 132 129 125 123 123 125 126 129 130 130 131 129 121 117 118 121 125 126 122 119 121 111 96 99 59 352 349 342 343 335 321 319 318 297 270
119 116 114 111 109 107 105 105 104 104 107 112 120 124 129 133 131 132 136 135 133 133 133 132 131 130 131 131 129 125 123 125 127 120 113 116 121 116 114 113 99 83 87 95 106 114 118 114 103 86 79 79 50 21 0 346 341 334 326 319 298 284 270
122 119 116 113 112 113 114 117 119 119 120 122 123 122 126 131 132 133 135 136 139 141 143 144 144 140 134 131 128 125 124 125 125 118 103 93 95 96 92 89 86 85 82 77 86 106 121 118 114 114 105 82 48 11 7 6 354 329 328 321 285 274 274
119 118 116 115 118 123 127 129 126 124 122 121 123 127 128 128 131 133 135 136 139 146 151 151 148 144 138 133 127 120 116 113 118 128 127 113 104 97 91 87 82 81 77 66 66 86 104 115 127 139 137 135 143 351 358 3 344 316 325 331 320 322 334
119 120 123 124 124 125 128 126 123 123 124 123 124 130 132 132 131 125 120 124 137 149 153 150 150 152 146 141 135 123 119 128 153 156 136 125 125 132 130 136 157 155 144 152 142 100 95 108 118 102 84 92 98 41 4 267 255 289 307 310 312 318 322
126 130 133 132 130 129 129 128 126 128 129 129 132 136 135 132 130 122 118 127 151 159 156 152 150 151 147 144 145 145 148 156 161 136 122 137 163 177 172 175 183 166 159 175 186 163 146 152 153 145 137 134 135 139 189 217 232 256 268 274 285 296 305
144 146 143 140 139 138 133 128 125 124 126 129 132 136 137 137 136 135 137 150 165 162 160 160 151 143 141 144 151 166 167 144 117 104 127 191 202 194 188 195 205 197 187 198 211 206 199 198 194 193 199 192 181 188 208 220 229 244 256 266 276 286 297
157 155 155 154 153 148 138 130 125 127 134 138 136 137 139 140 142 145 148 155 159 158 163 160 144 130 118 109 110 119 123 122 138 156 158 182 241 226 211 213 220 223 219 217 218 221 226 232 233 233 238 234 217 218 232 241 246 254 261 269 277 284 294
161 161 166 166 164 162 154 143 136 136 139 142 143 142 139 138 139 140 141 145 151 155 153 138 123 115 116 127 142 141 128 135 194 184 169 177 214 227 220 222 230 239 244 243 241 242 244 247 246 247 253 256 253 251 251 251 255 260 264 270 276 283 290
170 178 179 174 177 183 173 153 144 147 148 149 147 141 136 135 134 131 133 141 148 151 147 135 130 144 167 184 193 179 163 169 197 193 190 202 218 234 246 239 237 249 257 260 265 267 263 256 251 251 256 261 264 267 265 260 261 263 265 270 275 280 287
Height
1526 1528 1530 1533 1535 1537 1540 1542 1544 1546 1548 1550 1552 1554 1556 1557 1559 1560 1561 1562 1564 1565 1567 1569 1570 1572 1574 1575 1577 1578 1580 1581 1582 1583 1584 1585 1586 1587 1588 1589 1590 1591 1592 1593 1594 1595 1596 1597 1598 1598 1599 1600 1601 1602 1603 1604 1604 1606 1606 1607 1609 1609 1610
1525 1527 1529 1532 1535 1536 1539 1541 1543 1545 1547 1550 1551 1553 1555 1556 1558 1559 1560 1561 1563 1565 1566 1568 1569 1571 1573 1574 1576 1577 1579 1580 1581 1583 1584 1584 1586 1587 1588 1589 1590 1591 1592 1593 1594 1595 1596 1597 1597 1598 1599 1600 1601 1602 1603 1603 1604 1605 1606 1607 1608 1609 1610
1524 1527 1528 1532 1534 1536 1538 1540 1542 1544 1546 1549 1550 1552 1554 1555 1557 1558 1559 1560 1562 1564 1565 1567 1568 1570 1572 1573 1575 1577 1578 1579 1581 1582 1583 1584 1586 1587 1588 1589 1590 1591 1592 1593 1594 1594 1595 1596 1597 1598 1598 1599 1600 1601 1602 1603 1604 1605 1605 1606 1607 1608 1609
1524 1525 1528 1531 1533 1535 1537 1539 1541 1543 1545 1548 1549 1551 1553 1554 1556 1557 1558 1559 1560 1562 1564 1566 1568 1569 1571 1572 1574 1576 1577 1579 1580 1581 1583 1584 1585 1587 1588 1589 1590 1591 1592 1592 1593 1594 1595 1596 1597 1598 1598 1599 1600 1601 1602 1603 1603 1604 1605 1606 1607 1607 1608
1523 1525 1528 1530 1532 1535 1536 1538 1540 1541 1544 1546 1548 1551 1552 1554 1556 1556 1557 1558 1559 1561 1563 1565 1567 1568 1570 1572 1573 1575 1576 1578 1579 1581 1582 1583 1584 1586 1587 1588 1589 1590 1591 1592 1593 1594 1594 1595 1596 1597 1598 1599 1600 1600 1601 1602 1603 1604 1604 1605 1606 1607 1608
1521 1523 1526 1528 1530 1533 1535 1537 1539 1540 1543 1545 1547 1550 1551 1553 1555 1556 1557 1558 1559 1561 1562 1564 1566 1567 1569 1571 1572 1574 1575 1577 1579 1580 1581 1583 1584 1585 1586 1588 1589 1590 1591 1592 1593 1593 1594 1595 1596 1597 1597 1598 1599 1600 1601 1602 1602 1603 1604 1605 1606 1606 1607
1520 1522 1524 1527 1529 1531 1534 1536 1538 1540 1543 1544 1546 1549 1551 1552 1554 1555 1557 1558 1559 1561 1562 1564 1566 1567 1568 1570 1572 1574 1575 1576 1578 1580 1581 1582 1583 1585 1586 1587 1588 1589 1590 1591 1592 1593 1594 1595 1595 1596 1597 1598 1599 1600 1601 1601 1602 1602 1603 1604 1605 1605 1606
1519 1521 1524 1526 1528 1530 1533 1535 1537 1539 1542 1543 1545 1547 1549 1551 1553 1555 1556 1558 1559 1561 1562 1564 1566 1567 1568 1570 1572 1573 1575 1576 1578 1579 1581 1582 1583 1585 1586 1587 1588 1589 1590 1591 1592 1593 1594 1594 1595 1596 1597 1598 1599 1600 1600 1601 1602 1602 1603 1603 1604 1605 1605
1518 1520 1522 1525 1528 1530 1532 1534 1536 1539 1541 1542 1544 1546 1548 1549 1551 1553 1556 1557 1559 1560 1562 1564 1565 1567 1568 1569 1572 1573 1575 1576 1577 1578 1580 1581 1583 1584 1585 1586 1587 1589 1589 1590 1591 1591 1593 1594 1595 1595 1596 1597 1598 1599 1599 1600 1601 1602 1602 1602 1603 1604 1604
1518 1520 1523 1525 1528 1529 1531 1533 1536 1538 1540 1541 1543 1545 1547 1548 1550 1552 1554 1556 1559 1560 1562 1564 1565 1566 1567 1569 1571 1573 1574 1576 1577 1578 1579 1581 1582 1583 1585 1586 1587 1588 1589 1590 1591 1591 1592 1594 1594 1595 1596 1596 1597 1598 1599 1599 1599 1600 1601 1602 1602 1603 1603
1519 1522 1525 1527 1528 1529 1530 1533 1535 1537 1539 1540 1542 1544 1545 1548 1549 1551 1553 1556 1559 1560 1561 1563 1565 1566 1567 1568 1571 1572 1574 1575 1577 1578 1579 1580 1582 1583 1584 1585 1586 1587 1588 1589 1590 1591 1592 1593 1594 1594 1595 1596 1596 1597 1598 1598 1599 1599 1600 1601 1602 1602 1603
1521 1523 1526 1528 1529 1530 1531 1532 1534 1536 1538 1539 1541 1543 1544 1547 1549 1551 1553 1556 1559 1560 1561 1563 1564 1565 1566 1568 1570 1572 1573 1575 1576 1578 1579 1580 1582 1583 1584 1585 1585 1586 1587 1589 1590 1590 1591 1592 1593 1594 1595 1595 1596 1597 1597 1598 1598 1599 1599 1600 1601 1601 1602
1521 1522 1526 1527 1528 1530 1531 1532 1533 1535 1537 1538 1540 1542 1545 1547 1548 1550 1552 1555 1558 1559 1560 1562 1563 1565 1566 1567 1569 1571 1573 1575 1576 1577 1579 1580 1581 1583 1584 1584 1585 1586 1587 1588 1589 1590 1591 1592 1593 1594 1594 1595 1596 1596 1597 1597 1598 1599 1599 1599 1600 1601 1601
1520 1522 1525 1526 1527 1530 1531 1531 1532 1534 1537 1538 1540 1542 1544 1546 1547 1550 1553 1555 1555 1556 1558 1560 1563 1565 1567 1568 1570 1572 1572 1574 1576 1577 1579 1580 1580 1582 1583 1584 1586 1586 1587 1587 1588 1590 1591 1591 1592 1593 1594 1595 1595 1596 1596 1597 1598 1598 1598 1599 1599 1600 1600
1519 1521 1522 1524 1527 1529 1531 1532 1532 1534 1536 1538 1540 1542 1542 1545 1548 1550 1553 1553 1552 1554 1557 1560 1562 1564 1567 1569 1571 1573 1574 1575 1576 1577 1579 1580 1581 1581 1582 1584 1585 1586 1587 1587 1588 1589 1590 1591 1591 1592 1593 1594 1594 1595 1596 1596 1597 1597 1597 1598 1598 1599 1599
1518 1519 1521 1523 1525 1528 1531 1532 1532 1534 1536 1538 1540 1541 1543 1546 1547 1547 1549 1550 1550 1553 1557 1560 1562 1564 1567 1569 1572 1573 1574 1576 1578 1578 1579 1579 1581 1581 1582 1584 1585 1586 1587 1587 1588 1589 1590 1591 1591 1592 1593 1593 1593 1595 1595 1595 1595 1596 1596 1597 1598 1598 1598
1518 1519 1521 1523 1525 1527 1529 1531 1531 1533 1535 1537 1540 1541 1543 1545 1544 1544 1546 1548 1549 1552 1556 1559 1562 1564 1567 1568 1571 1572 1574 1575 1576 1577 1577 1578 1579 1580 1581 1583 1583 1583 1583 1584 1585 1587 1588 1590 1591 1592 1592 1592 1593 1594 1593 1593 1593 1594 1595 1596 1597 1597 1597
1519 1520 1522 1523 1525 1526 1527 1528 1529 1531 1533 1536 1538 1540 1542 1544 1544 1545 1547 1548 1549 1552 1555 1557 1559 1562 1564 1566 1569 1571 1573 1574 1575 1575 1576 1577 1579 1580 1581 1581 1581 1580 1580 1581 1582 1583 1585 1587 1588 1589 1589 1590 1591 1592 1591 1591 1592 1593 1594 1595 1595 1596 1596
1521 1522 1523 1523 1524 1525 1526 1527 1528 1530 1532 1534 1536 1538 1541 1543 1545 1546 1547 1548 1550 1552 1553 1554 1556 1560 1562 1563 1566 1567 1570 1573 1574 1576 1577 1577 1578 1580 1580 1580 1580 1580 1581 1582 1583 1583 1584 1585 1586 1587 1587 1588 1589 1589 1589 1590 1591 1592 1593 1593 1594 1594 1595
1524 1524 1524 1524 1524 1524 1525 1526 1528 1530 1532 1533 1535 1536 1539 1541 1543 1545 1546 1548 1549 1551 1552 1553 1555 1558 1559 1561 1563 1565 1568 1570 1572 1573 1574 1574 1576 1578 1578 1579 1579 1579 1579 1580 1582 1583 1583 1583 1584 1585 1586 1587 1588 1588 1588 1588 1589 1590 1591 1592 1592 1593 1594
1526 1526 1526 1525 1525 1525 1526 1527 1529 1530 1532 1533 1535 1536 1538 1540 1541 1543 1545 1546 1548 1549 1551 1552 1554 1556 1557 1559 1561 1564 1566 1568 1570 1572 1572 1572 1574 1576 1578 1579 1578 1577 1577 1578 1580 1581 1582 1582 1583 1583 1584 1585 1586 1586 1586 1587 1587 1588 1589 1590 1591 1592 1592
1527 1527 1527 1526 1526 1527 1527 1528 1529 1530 1532 1533 1535 1537 1538 1539 1541 1543 1544 1546 1547 1548 1550 1551 1553 1555 1556 1557 1560 1562 1564 1566 1568 1570 1570 1571 1573 1576 1578 1579 1577 1575 1575 1576 1577 1578 1579 1580 1581 1581 1582 1583 1583 1584 1584 1585 1585 1586 1586 1587 1589 1590 1591
1528 1528 1528 1527 1528 1528 1528 1529 1530 1531 1532 1534 1535 1537 1538 1539 1541 1542 1543 1545 1546 1547 1549 1551 1552 1554 1555 1556 1559 1562 1563 1564 1566 1568 1568 1569 1572 1575 1577 1576 1575 1574 1574 1574 1574 1575 1576 1577 1578 1578 1579 1581 1581 1581 1582 1583 1583 1584 1584 1585 1586 1588 1588
1529 1529 1529 1529 1529 1529 1529 1530 1530 1532 1533 1534 1535 1537 1538 1539 1540 1541 1542 1544 1545 1547 1549 1550 1552 1553 1554 1556 1558 1561 1563 1562 1563 1565 1566 1567 1569 1571 1573 1573 1572 1572 1572 1572 1573 1574 1574 1575 1576 1576 1576 1578 1579 1579 1580 1581 1582 1582 1583 1584 1585 1586 1586
1530 1530 1530 1531 1531 1531 1531 1531 1532 1533 1534 1535 1536 1537 1538 1539 1539 1540 1542 1543 1545 1547 1548 1550 1551 1552 1553 1554 1557 1560 1561 1561 1561 1562 1564 1565 1566 1568 1569 1570 1570 1570 1570 1571 1572 1573 1573 1574 1574 1574 1574 1576 1577 1578 1579 1580 1580 1581 1581 1582 1583 1584 1584
1531 1532 1532 1533 1533 1533 1534 1534 1534 1535 1536 1536 1537 1538 1539 1539 1540 1541 1542 1543 1545 1547 1548 1550 1551 1551 1552 1554 1556 1559 1560 1560 1560 1561 1563 1565 1565 1566 1567 1568 1569 1569 1569 1570 1570 1571 1573 1573 1573 1573 1574 1574 1575 1576 1577 1578 1579 1579 1579 1580 1581 1582 1582
1534 1535 1535 1536 1536 1536 1536 1537 1537 1537 1538 1538 1539 1540 1540 1541 1541 1542 1544 1545 1547 1548 1548 1550 1551 1552 1554 1555 1557 1559 1560 1559 1559 1560 1563 1564 1564 1564 1566 1568 1569 1569 1569 1569 1569 1570 1573 1573 1573 1573 1573 1573 1574 1575 1576 1576 1577 1578 1578 1578 1579 1580 1581
1536 1537 1537 1537 1538 1538 1539 1539 1539 1540 1540 1541 1542 1542 1542 1542 1543 1544 1546 1547 1548 1549 1550 1551 1552 1554 1555 1557 1559 1560 1559 1559 1560 1561 1563 1564 1564 1564 1566 1568 1569 1568 1568 1569 1569 1571 1573 1573 1573 1573 1573 1574 1575 1576 1576 1576 1577 1577 1578 1578 1579 1579 1580
1537 1538 1539 1539 1540 1540 1541 1541 1542 1542 1543 1543 1543 1544 1544 1545 1545 1546 1547 1548 1549 1550 1551 1552 1553 1555 1557 1558 1559 1559 1559 1560 1561 1562 1564 1565 1565 1566 1567 1569 1570 1569 1569 1570 1571 1572 1573 1574 1575 1575 1575 1575 1576 1577 1577 1577 1577 1578 1578 1579 1579 1579 1579
1537 1538 1539 1540 1542 1542 1543 1543 1543 1543 1544 1544 1545 1545 1546 1547 1547 1548 1549 1550 1550 1551 1553 1553 1555 1556 1558 1559 1559 1559 1560 1561 1562 1564 1565 1566 1567 1567 1568 1569 1569 1569 1570 1571 1572 1572 1573 1575 1575 1575 1575 1576 1577 1578 1578 1578 1578 1578 1579 1579 1579 1579 1579
1537 1538 1539 1541 1543 1543 1544 1544 1544 1544 1545 1545 1546 1547 1548 1549 1549 1550 1551 1552 1552 1553 1554 1555 1556 1557 1558 1559 1559 1559 1560 1561 1563 1565 1566 1567 1568 1568 1568 1569 1569 1570 1571 1572 1572 1573 1574 1575 1576 1576 1576 1576 1577 1578 1579 1579 1579 1578 1578 1578 1578 1578 1578
1538 1539 1540 1542 1543 1543 1544 1545 1545 1546 1546 1547 1548 1549 1549 1550 1551 1551 1552 1553 1553 1554 1555 1556 1557 1557 1558 1559 1559 1560 1561 1562 1564 1565 1566 1567 1568 1569 1569 1570 1570 1571 1572 1572 1573 1573 1574 1575 1576 1576 1576 1576 1577 1577 1578 1578 1578 1578 1578 1578 1577 1576 1577
1539 1541 1542 1543 1543 1544 1545 1546 1546 1547 1547 1548 1549 1550 1551 1551 1552 1552 1553 1554 1554 1554 1555 1556 1557 1558 1558 1559 1560 1561 1562 1563 1564 1565 1566 1568 1569 1569 1570 1570 1571 1571 1572 1572 1573 1573 1574 1575 1575 1576 1576 1577 1577 1578 1578 1577 1577 1577 1578 1577 1576 1576 1576
1540 1542 1543 1544 1545 1546 1546 1547 1548 1548 1549 1550 1550 1551 1552 1553 1553 1554 1554 1554 1555 1555 1555 1556 1557 1558 1559 1560 1561 1562 1563 1563 1565 1566 1566 1567 1568 1569 1569 1570 1570 1570 1571 1572 1572 1573 1573 1574 1574 1574 1575 1575 1576 1577 1577 1577 1577 1577 1577 1577 1576 1576 1576
1540 1542 1544 1545 1545 1546 1547 1548 1549 1550 1550 1551 1551 1552 1553 1553 1554 1554 1555 1555 1555 1555 1556 1557 1557 1558 1560 1560 1561 1562 1563 1564 1565 1567 1567 1568 1568 1569 1569 1569 1569 1570 1570 1571 1572 1573 1573 1574 1573 1573 1573 1574 1575 1576 1575 1576 1576 1576 1575 1575 1575 1575 1575
1540 1541 1543 1544 1545 1546 1547 1548 1549 1550 1551 1552 1552 1553 1553 1554 1554 1555 1555 1555 1556 1556 1556 1557 1557 1559 1560 1560 1561 1562 1563 1564 1565 1566 1567 1567 1567 1568 1569 1569 1569 1570 1570 1571 1572 1573 1573 1573 1573 1573 1573 1574 1575 1575 1575 1575 1575 1574 1574 1574 1574 1574 1573
1542 1542 1543 1545 1546 1546 1548 1549 1549 1550 1551 1552 1553 1553 1554 1554 1554 1555 1555 1556 1556 1556 1557 1557 1558 1559 1560 1561 1561 1562 1563 1564 1565 1566 1567 1567 1567 1567 1568 1568 1569 1569 1570 1571 1571 1572 1572 1572 1572 1572 1572 1572 1573 1573 1573 1573 1573 1573 1573 1572 1572 1572 1572
1544 1544 1545 1546 1546 1547 1548 1549 1550 1551 1551 1552 1553 1553 1554 1554 1555 1555 1556 1556 1556 1557 1558 1558 1559 1559 1560 1560 1561 1561 1563 1563 1564 1565 1566 1566 1566 1567 1567 1568 1568 1569 1569 1570 1570 1570 1571 1571 1571 1571 1571 1571 1571 1571 1572 1572 1571 1571 1571 1571 1571 1571 1571